H1 CPF 2 NER 2022 4 11 9 101 01 glonass134 H2 1407501 9134 40315 2022 4 11 0 0 0 2022 4 14 23 45 0 900 1 1 0 0 0 1 H9 10 0 59680 0.00000 0 2684667.062 16157604.983 19595400.394 10 0 59680 900.00000 0 871491.149 14435184.973 21045393.605 10 0 59680 1800.00000 0 -1178851.571 12748974.526 22087957.349 10 0 59680 2700.00000 0 -3427122.493 11152875.274 22702689.339 10 0 59680 3600.00000 0 -5824432.611 9693655.832 22877430.343 10 0 59680 4500.00000 0 -8314027.288 8409098.290 22608516.446 10 0 59680 5400.00000 0 -10833411.525 7326533.758 21900870.736 10 0 59680 6300.00000 0 -13316730.000 6461828.510 20767931.166 10 0 59680 7200.00000 0 -15697304.886 5818863.995 19231414.071 10 0 59680 8100.00000 0 -17910227.245 5389533.589 17320915.964 10 0 59680 9000.00000 0 -19894894.658 5154257.439 15073359.213 10 0 59680 9900.00000 0 -21597388.940 5082994.962 12532290.594 10 0 59680 10800.00000 0 -22972593.751 5136713.177 9747044.839 10 0 59680 11700.00000 0 -23985962.075 5269249.331 6771788.451 10 0 59680 12600.00000 0 -24614857.712 5429488.914 3664462.182 10 0 59680 13500.00000 0 -24849412.732 5563765.968 485643.047 10 0 59680 14400.00000 0 -24692863.362 5618382.504 -2702650.930 10 0 59680 15300.00000 0 -24161349.088 5542138.126 -5838188.329 10 0 59680 16200.00000 0 -23283183.078 5288760.133 -8859758.428 10 0 59680 17100.00000 0 -22097624.921 4819128.447 -11708385.618 10 0 59680 18000.00000 0 -20653208.421 4103198.568 -14328498.236 10 0 59680 18900.00000 0 -19005696.385 3121538.919 -16669027.196 10 0 59680 19800.00000 0 -17215750.381 1866415.786 -18684411.553 10 0 59680 20700.00000 0 -15346415.465 342378.936 -20335490.411 10 0 59680 21600.00000 0 -13460527.324 -1433677.371 -21590263.527 10 0 59680 22500.00000 0 -11618152.014 -3432980.585 -22424506.103 10 0 59680 23400.00000 0 -9874166.360 -5615853.243 -22822226.546 10 0 59680 24300.00000 0 -8276080.313 -7933152.060 -22775959.628 10 0 59680 25200.00000 0 -6862191.541 -10328111.784 -22286890.846 10 0 59680 26100.00000 0 -5660147.858 -12738516.024 -21364811.263 10 0 59680 27000.00000 0 -4685975.370 -15099104.069 -20027905.425 10 0 59680 27900.00000 0 -3943610.244 -17344113.325 -18302378.016 10 0 59680 28800.00000 0 -3424950.812 -19409851.736 -16221927.879 10 0 59680 29700.00000 0 -3110424.867 -21237193.911 -13827080.684 10 0 59680 30600.00000 0 -2970045.663 -22773898.262 -11164393.886 10 0 59680 31500.00000 0 -2964910.069 -23976650.151 -8285549.882 10 0 59680 32400.00000 0 -3049074.200 -24812747.740 -5246354.999 10 0 59680 33300.00000 0 -3171726.571 -25261362.173 -2105663.469 10 0 59680 34200.00000 0 -3279566.891 -25314321.268 1075753.203 10 0 59680 35100.00000 0 -3319290.381 -24976385.663 4236370.322 10 0 59680 36000.00000 0 -3240073.498 -24265007.069 7315086.039 10 0 59680 36900.00000 0 -2995957.114 -23209579.485 10252387.589 10 0 59680 37800.00000 0 -2548027.565 -21850214.838 12991486.479 10 0 59680 38700.00000 0 -1866304.370 -20236093.833 15479402.027 10 0 59680 39600.00000 0 -931255.497 -18423459.964 17667973.511 10 0 59680 40500.00000 0 265123.795 -16473339.110 19514782.630 10 0 59680 41400.00000 0 1718714.780 -14449078.197 20983969.469 10 0 59680 42300.00000 0 3413188.286 -12413803.865 22046926.872 10 0 59680 43200.00000 0 5320432.858 -10427905.362 22682860.159 10 0 59680 44100.00000 0 7401482.912 -8546645.082 22879201.281 10 0 59680 45000.00000 0 9607911.134 -6817995.330 22631868.755 10 0 59680 45900.00000 0 11883630.211 -5280790.845 21945367.305 10 0 59680 46800.00000 0 14167031.683 -3963274.050 20832723.755 10 0 59680 47700.00000 0 16393375.196 -2882094.241 19315258.554 10 0 59680 48600.00000 0 18497330.343 -2041803.287 17422195.373 10 0 59680 49500.00000 0 20415566.104 -1434869.939 15190114.241 10 0 59680 50400.00000 0 22089279.785 -1042213.234 12662257.033 10 0 59680 51300.00000 0 23466559.138 -834233.381 9887697.295 10 0 59680 52200.00000 0 24504477.398 -772297.162 6920389.511 10 0 59680 53100.00000 0 25170831.570 -810615.155 3818116.080 10 0 59680 54000.00000 0 25445449.007 -898430.694 641352.755 10 0 59680 54900.00000 0 25321005.442 -982426.626 -2547924.365 10 0 59680 55800.00000 0 24803318.469 -1009245.971 -5687465.430 10 0 59680 56700.00000 0 23911103.108 -928017.288 -8715981.224 10 0 59680 57600.00000 0 22675199.419 -692775.096 -11574359.136 10 0 59680 58500.00000 0 21137305.066 -264670.170 -14206834.821 10 0 59680 59400.00000 0 19348267.222 386126.300 -16562094.854 10 0 59680 60300.00000 0 17366007.127 1278907.248 -18594287.391 10 0 59680 61200.00000 0 15253166.317 2421368.400 -20263920.133 10 0 59680 62100.00000 0 13074575.055 3809046.685 -21538627.777 10 0 59680 63000.00000 0 10894650.546 5425282.312 -22393794.265 10 0 59680 63900.00000 0 8774834.884 7241705.750 -22813018.456 10 0 59680 64800.00000 0 6771180.172 9219228.574 -22788415.453 10 0 59680 65700.00000 0 4932181.196 11309495.812 -22320749.235 10 0 59680 66600.00000 0 3296944.951 13456738.107 -21419395.692 10 0 59680 67500.00000 0 1893771.399 15599945.599 -20102138.543 10 0 59680 68400.00000 0 739202.129 17675272.368 -18394803.601 10 0 59680 69300.00000 0 -162426.267 19618571.002 -16330739.932 10 0 59680 70200.00000 0 -818908.561 21367952.014 -13950159.052 10 0 59680 71100.00000 0 -1249583.124 22866262.193 -11299345.674 10 0 59680 72000.00000 0 -1484257.322 24063379.664 -8429755.866 10 0 59680 72900.00000 0 -1561693.433 24918231.409 -5397020.134 10 0 59680 73800.00000 0 -1527720.293 25400450.669 -2259870.537 10 0 59680 74700.00000 0 -1433051.020 25491606.615 920987.776 10 0 59680 75600.00000 0 -1330899.033 25185956.427 4084039.547 10 0 59680 76500.00000 0 -1274492.520 24490689.516 7168135.342 10 0 59680 77400.00000 0 -1314591.457 23425654.411 10113658.752 10 0 59680 78300.00000 0 -1497110.971 22022579.958 12863663.551 10 0 59680 79200.00000 0 -1860950.328 20323822.974 15364960.168 10 0 59680 80100.00000 0 -2436118.337 18380693.779 17569131.713 10 0 59680 81000.00000 0 -3242233.858 16251428.067 19433461.166 10 0 59680 81900.00000 0 -4287464.850 13998887.896 20921752.854 10 0 59680 82800.00000 0 -5567951.527 11688085.698 22005033.013 10 0 59680 83700.00000 0 -7067739.575 9383632.423 22662116.298 10 0 59680 84600.00000 0 -8759228.590 7147214.180 22880027.200 10 0 59680 85500.00000 0 -10604119.732 5035201.004 22654267.617 10 0 59681 0.00000 0 -12554825.834 3096486.367 21988924.451 10 0 59681 900.00000 0 -14556289.153 1370645.860 20896613.210 10 0 59681 1800.00000 0 -16548130.813 -113505.522 19398257.862 10 0 59681 2700.00000 0 -18467047.834 -1338900.396 17522708.020 10 0 59681 3600.00000 0 -20249356.370 -2300705.573 15306199.598 10 0 59681 4500.00000 0 -21833576.317 -3006287.981 12791667.281 10 0 59681 5400.00000 0 -23162948.635 -3474660.323 10027920.700 10 0 59681 6300.00000 0 -24187778.742 -3735429.239 7068699.245 10 0 59681 7200.00000 0 -24867505.880 -3827290.104 3971623.634 10 0 59681 8100.00000 0 -25172409.414 -3796132.464 797064.878 10 0 59681 9000.00000 0 -25084878.100 -3692837.311 -2393046.394 10 0 59681 9900.00000 0 -24600186.850 -3570861.048 -5536445.453 10 0 59681 10800.00000 0 -23726746.709 -3483710.742 -8571768.059 10 0 59681 11700.00000 0 -22485816.544 -3482420.118 -11439767.948 10 0 59681 12600.00000 0 -20910688.318 -3613135.873 -14084491.238 10 0 59681 13500.00000 0 -19045380.680 -3914919.039 -16454383.016 10 0 59681 14400.00000 0 -16942896.816 -4417856.587 -18503303.003 10 0 59681 15300.00000 0 -14663121.191 -5141564.734 -20191429.470 10 0 59681 16200.00000 0 -12270444.990 -6094148.194 -21486033.447 10 0 59681 17100.00000 0 -9831221.170 -7271659.628 -22362108.373 10 0 59681 18000.00000 0 -7411156.796 -8658081.886 -22802843.661 10 0 59681 18900.00000 0 -5072752.122 -10225833.121 -22799934.217 10 0 59681 19800.00000 0 -2872893.152 -11936772.716 -22353721.393 10 0 59681 20700.00000 0 -860697.258 -13743664.715 -21473164.320 10 0 59681 21600.00000 0 924300.041 -15592036.584 -20175643.885 10 0 59681 22500.00000 0 2453543.870 -17422354.761 -18486604.740 10 0 59681 23400.00000 0 3710388.758 -19172425.596 -16439043.671 10 0 59681 24300.00000 0 4690521.769 -20779921.362 -14072855.400 10 0 59681 25200.00000 0 5401865.487 -22184926.215 -11434049.210 10 0 59681 26100.00000 0 5863967.864 -23332396.509 -8573852.154 10 0 59681 27000.00000 0 6106907.155 -24174433.819 -5547716.284 10 0 59681 27900.00000 0 6169759.968 -24672277.036 -2414248.966 10 0 59681 28800.00000 0 6098698.178 -24797931.603 765913.422 10 0 59681 29700.00000 0 5944795.526 -24535369.187 3931267.316 10 0 59681 30600.00000 0 5761636.372 -23881248.654 7020617.815 10 0 59681 31500.00000 0 5602826.876 -22845128.965 9974246.817 10 0 59681 32400.00000 0 5519512.690 -21449165.315 12735052.137 10 0 59681 33300.00000 0 5558006.835 -19727300.879 15249636.912 10 0 59681 34200.00000 0 5757626.749 -17723987.044 17469329.473 10 0 59681 35100.00000 0 6148830.954 -15492484.111 19351115.249 10 0 59681 36000.00000 0 6751733.588 -13092811.408 20858463.719 10 0 59681 36900.00000 0 7575059.668 -10589430.129 21962035.168 10 0 59681 37800.00000 0 8615586.087 -8048753.081 22640253.967 10 0 59681 38700.00000 0 9858093.594 -5536582.729 22879737.270 10 0 59681 39600.00000 0 11275834.092 -3115582.272 22675570.239 10 0 59681 40500.00000 0 12831496.423 -842883.422 22031421.452 10 0 59681 41400.00000 0 14478633.116 1232070.588 20959494.805 10 0 59681 42300.00000 0 16163491.069 3069357.236 19480316.991 10 0 59681 43200.00000 0 17827171.959 4640005.742 17622362.690 10 0 59681 44100.00000 0 19408033.631 5926966.604 15421522.647 10 0 59681 45000.00000 0 20844232.769 6925578.197 12920423.129 10 0 59681 45900.00000 0 22076302.281 7643510.069 10167608.402 10 0 59681 46800.00000 0 23049654.454 8100184.576 7216601.089 10 0 59681 47700.00000 0 23716903.078 8325700.811 4124858.312 10 0 59681 48600.00000 0 24039904.856 8359306.342 952644.190 10 0 59681 49500.00000 0 23991431.773 8247482.089 -2238158.464 10 0 59681 50400.00000 0 23556401.657 8041722.660 -5385272.521 10 0 59681 51300.00000 0 22732613.008 7796108.057 -8427261.258 10 0 59681 52200.00000 0 21530951.587 7564771.938 -11304747.267 10 0 59681 53100.00000 0 19975059.164 7399376.186 -13961589.531 10 0 59681 54000.00000 0 18100478.190 7346701.287 -16345993.881 10 0 59681 54900.00000 0 15953308.805 7446456.712 -18411533.645 10 0 59681 55800.00000 0 13588435.587 7729405.713 -20118059.492 10 0 59681 56700.00000 0 11067399.740 8215884.921 -21432480.409 10 0 59681 57600.00000 0 8456007.119 8914781.778 -22329400.748 10 0 59681 58500.00000 0 5821773.400 9823012.759 -22791601.663 10 0 59681 59400.00000 0 3231313.788 10925523.720 -22810358.797 10 0 59681 60300.00000 0 747786.303 12195811.350 -22385591.511 10 0 59681 61200.00000 0 -1571505.282 13596942.549 -21525842.465 10 0 59681 62100.00000 0 -3677250.298 15083027.724 -20248089.638 10 0 59681 63000.00000 0 -5529924.767 16601085.170 -18577396.030 10 0 59681 63900.00000 0 -7101167.426 18093217.561 -16546405.277 10 0 59681 64800.00000 0 -8374683.876 19499009.017 -14194694.061 10 0 59681 65700.00000 0 -9346644.229 20758042.420 -11567994.664 10 0 59681 66600.00000 0 -10025560.728 21812431.974 -8717303.258 10 0 59681 67500.00000 0 -10431653.327 22609265.818 -5697891.344 10 0 59681 68400.00000 0 -10595732.275 23102857.506 -2568239.288 10 0 59681 69300.00000 0 -10557646.341 23256713.270 611087.755 10 0 59681 70200.00000 0 -10364363.094 23045133.909 3778600.480 10 0 59681 71100.00000 0 -10067762.468 22454385.275 6873061.163 10 0 59681 72000.00000 0 -9722236.283 21483389.089 9834652.700 10 0 59681 72900.00000 0 -9382194.249 20143905.443 12606119.639 10 0 59681 73800.00000 0 -9099580.481 18460199.100 15133860.497 10 0 59681 74700.00000 0 -8921504.062 16468202.699 17368951.431 10 0 59681 75600.00000 0 -8888082.424 14214210.368 19268082.812 10 0 59681 76500.00000 0 -9030587.666 11753154.305 20794391.627 10 0 59681 77400.00000 0 -9369973.572 9146533.865 21918174.357 10 0 59681 78300.00000 0 -9915845.702 6460080.884 22617466.993 10 0 59681 79200.00000 0 -10665918.939 3761255.823 22878480.938 10 0 59681 80100.00000 0 -11605986.975 1116676.632 22695885.813 10 0 59681 81000.00000 0 -12710407.295 -1410414.714 22072932.714 10 0 59681 81900.00000 0 -13943083.887 -3762544.103 21021414.060 10 0 59681 82800.00000 0 -15258909.078 -5890156.764 19561459.028 10 0 59681 83700.00000 0 -16605606.463 -7753438.992 17721166.523 10 0 59681 84600.00000 0 -17925899.587 -9323733.848 15536080.729 10 0 59681 85500.00000 0 -19159916.565 -10584490.879 13048517.563 10 0 59682 0.00000 0 -20247730.023 -11531709.218 10306753.799 10 0 59682 900.00000 0 -21131925.671 -12173855.052 7364091.998 10 0 59682 1800.00000 0 -21760088.753 -12531255.042 4277822.811 10 0 59682 2700.00000 0 -22087103.667 -12634992.793 1108100.109 10 0 59682 3600.00000 0 -22077166.010 -12525353.938 -2083244.630 10 0 59682 4500.00000 0 -21705420.247 -12249887.098 -5233925.492 10 0 59682 5400.00000 0 -20959151.482 -11861164.219 -8282436.918 10 0 59682 6300.00000 0 -19838478.974 -11414337.169 -11169273.944 10 0 59682 7200.00000 0 -18356520.748 -10964596.418 -13838111.884 10 0 59682 8100.00000 0 -16539021.549 -10564641.848 -16236920.555 10 0 59682 9000.00000 0 -14423459.663 -10262274.995 -18318989.776 10 0 59682 9900.00000 0 -12057670.655 -10098216.460 -20043845.039 10 0 59682 10800.00000 0 -9498046.687 -10104242.020 -21378035.122 10 0 59682 11700.00000 0 -6807387.928 -10301716.782 -22295776.469 10 0 59682 12600.00000 0 -4052497.118 -10700589.170 -22779442.454 10 0 59682 13500.00000 0 -1301618.521 -11298886.466 -22819889.234 10 0 59682 14400.00000 0 1378171.499 -12082732.017 -22416613.317 10 0 59682 15300.00000 0 3923513.752 -13026881.912 -21577739.457 10 0 59682 16200.00000 0 6277150.076 -14095757.035 -20319840.817 10 0 59682 17100.00000 0 8390044.170 -15244925.677 -18667596.475 10 0 59682 18000.00000 0 10223153.179 -16422973.219 -16653294.337 10 0 59682 18900.00000 0 11748778.972 -17573679.578 -14316190.249 10 0 59682 19800.00000 0 12951445.747 -18638412.643 -11701736.523 10 0 59682 20700.00000 0 13828270.317 -19558637.300 -8860695.375 10 0 59682 21600.00000 0 14388812.624 -20278435.279 -5848154.613 10 0 59682 22500.00000 0 14654415.312 -20746930.894 -2722464.475 10 0 59682 23400.00000 0 14657062.170 -20920521.932 455884.167 10 0 59682 24300.00000 0 14437804.844 -20764823.222 3625419.201 10 0 59682 25200.00000 0 14044824.768 -20256242.380 6724862.802 10 0 59682 26100.00000 0 13531211.941 -19383122.412 9694301.313 10 0 59682 27000.00000 0 12952553.587 -18146403.681 12476328.158 10 0 59682 27900.00000 0 12364433.299 -16559777.335 15017139.009 10 0 59682 28800.00000 0 11819944.745 -14649323.043 17267559.258 10 0 59682 29700.00000 0 11367323.368 -12452644.844 19183985.243 10 0 59682 30600.00000 0 11047794.606 -10017539.197 20729222.097 10 0 59682 31500.00000 0 10893728.443 -7400248.477 21873202.766 10 0 59682 32400.00000 0 10927177.610 -4663369.983 22593574.772 10 0 59682 33300.00000 0 11158861.321 -1873504.660 22876143.355 10 0 59682 34200.00000 0 11587638.239 901259.222 22715161.894 10 0 59682 35100.00000 0 12200492.466 3593925.183 22113463.046 10 0 59682 36000.00000 0 12973035.236 6141125.049 21082426.596 10 0 59682 36900.00000 0 13870503.538 8485508.510 19641782.868 10 0 59682 37800.00000 0 14849216.052 10577886.839 17819253.515 10 0 59682 38700.00000 0 15858427.236 12379041.374 15650034.556 10 0 59682 39600.00000 0 16842503.081 13861120.625 13176129.844 10 0 59682 40500.00000 0 17743327.750 15008566.722 10445546.305 10 0 59682 41400.00000 0 18502839.713 15818531.387 7511365.468 10 0 59682 42300.00000 0 19065589.550 16300762.979 4430708.943 10 0 59682 43200.00000 0 19381209.905 16476968.903 1263618.151 10 0 59682 44100.00000 0 19406691.126 16379680.151 -1928129.044 10 0 59682 45000.00000 0 19108363.945 16050666.476 -5082240.247 10 0 59682 45900.00000 0 18463502.908 15538970.368 -8137143.319 10 0 59682 46800.00000 0 17461480.422 14898644.706 -11033207.907 10 0 59682 47700.00000 0 16104420.840 14186291.958 -13713927.654 10 0 59682 48600.00000 0 14407325.637 13458511.370 -16127038.163 10 0 59682 49500.00000 0 12397663.696 12769364.369 -18225547.331 10 0 59682 50400.00000 0 10114443.954 12167967.329 -19968656.853 10 0 59682 51300.00000 0 7606809.813 11696314.818 -21322556.486 10 0 59682 52200.00000 0 4932215.018 11387425.993 -22261075.761 10 0 59682 53100.00000 0 2154258.400 11263892.425 -22766181.060 10 0 59682 54000.00000 0 -659731.246 11336887.887 -22828309.615 10 0 59682 54900.00000 0 -3441258.850 11605680.601 -22446535.367 10 0 59682 55800.00000 0 -6123268.327 12057666.838 -21628565.133 10 0 59682 56700.00000 0 -8642681.495 12668922.569 -20390566.868 10 0 59682 57600.00000 0 -10942766.152 13405248.124 -18756834.958 10 0 59682 58500.00000 0 -12975236.447 14223660.223 -16759300.458 10 0 59682 59400.00000 0 -14702000.434 15074267.339 -14436896.953 10 0 59682 60300.00000 0 -16096484.688 15902448.656 -11834795.100 10 0 59682 61200.00000 0 -17144483.548 16651244.616 -9003521.298 10 0 59682 62100.00000 0 -17844500.451 17263858.661 -5997977.675 10 0 59682 63000.00000 0 -18207569.748 17686165.491 -2876382.260 10 0 59682 63900.00000 0 -18256568.709 17869121.225 300850.492 10 0 59682 64800.00000 0 -18025050.344 17770975.151 3472267.852 10 0 59682 65700.00000 0 -17555647.115 17359191.104 6576554.124 10 0 59682 66600.00000 0 -16898113.022 16611998.626 9553701.392 10 0 59682 67500.00000 0 -16107086.167 15519509.269 12346154.289 10 0 59682 68400.00000 0 -15239665.095 14084351.233 14899907.997 10 0 59682 69300.00000 0 -14352899.694 12321795.201 17165539.483 10 0 59682 70200.00000 0 -13501300.766 10259364.896 19099153.323 10 0 59682 71100.00000 0 -12734471.576 7935946.789 20663224.952 10 0 59682 72000.00000 0 -12094959.744 5400433.838 21827325.757 10 0 59682 72900.00000 0 -11616418.938 2709957.011 22568716.530 10 0 59682 73800.00000 0 -11322157.314 -72224.720 22872797.787 10 0 59682 74700.00000 0 -11224134.017 -2879090.938 22733407.766 10 0 59682 75600.00000 0 -11322446.841 -5642387.223 22152961.392 10 0 59682 76500.00000 0 -11605334.071 -8295210.580 21142426.092 10 0 59682 77400.00000 0 -12049692.256 -10774546.878 19721133.163 10 0 59682 78300.00000 0 -12622090.206 -13023655.643 17916426.353 10 0 59682 79200.00000 0 -13280238.451 -14994203.081 15763152.408 10 0 59682 80100.00000 0 -13974853.874 -16648053.870 13303001.555 10 0 59682 81000.00000 0 -14651841.967 -17958645.994 10583709.164 10 0 59682 81900.00000 0 -15254704.926 -18911889.950 7658132.906 10 0 59682 82800.00000 0 -15727073.404 -19506553.375 4583222.958 10 0 59682 83700.00000 0 -16015253.670 -19754114.059 1418905.409 10 0 59682 84600.00000 0 -16070680.501 -19678087.015 -1773098.585 10 0 59682 85500.00000 0 -15852169.690 -19312854.021 -4930493.401 10 0 59683 0.00000 0 -15327872.313 -18702045.882 -7991643.430 10 0 59683 900.00000 0 -14476845.205 -17896546.694 -10896796.909 10 0 59683 1800.00000 0 -13290169.786 -16952207.173 -13589268.948 10 0 59683 2700.00000 0 -11771569.304 -15927364.775 -16016564.237 10 0 59683 3600.00000 0 -9937497.900 -14880278.357 -18131411.826 10 0 59683 4500.00000 0 -7816697.028 -13866587.489 -19892692.323 10 0 59683 5400.00000 0 -5449237.964 -12936905.277 -21266238.696 10 0 59683 6300.00000 0 -2885091.036 -12134647.188 -22225495.207 10 0 59683 7200.00000 0 -182282.328 -11494187.647 -22752022.268 10 0 59683 8100.00000 0 2595284.274 -11039421.487 -22835838.548 10 0 59683 9000.00000 0 5380248.177 -10782789.618 -22475595.157 10 0 59683 9900.00000 0 8104354.966 -10724808.154 -21678580.131 10 0 59683 10800.00000 0 10701054.549 -10854118.667 -20460554.875 10 0 59683 11700.00000 0 13108027.163 -11148055.229 -18845427.291 10 0 59683 12600.00000 0 15269533.347 -11573702.228 -16864769.410 10 0 59683 13500.00000 0 17138491.952 -12089396.562 -14557190.014 10 0 59683 14400.00000 0 18678201.921 -12646609.585 -11967575.259 10 0 59683 15300.00000 0 19863638.609 -13192128.626 -9146212.576 10 0 59683 16200.00000 0 20682273.239 -13670445.898 -6147815.042 10 0 59683 17100.00000 0 21134383.890 -14026254.309 -3030464.952 10 0 59683 18000.00000 0 21232847.275 -14206945.645 145503.252 10 0 59683 18900.00000 0 21002421.960 -14165006.767 3318659.755 10 0 59683 19800.00000 0 20478554.382 -13860213.929 6427654.363 10 0 59683 20700.00000 0 19705758.412 -13261533.770 9412387.981 10 0 59683 21600.00000 0 18735636.542 -12348651.722 12215159.156 10 0 59683 22500.00000 0 17624625.174 -11113063.820 14781764.845 10 0 59683 23400.00000 0 16431557.625 -9558685.828 17062535.372 10 0 59683 24300.00000 0 15215145.791 -7701953.163 19013284.857 10 0 59683 25200.00000 0 14031484.577 -5571405.828 20596159.847 10 0 59683 26100.00000 0 12931682.373 -3206773.517 21780370.527 10 0 59683 27000.00000 0 11959715.747 -657596.371 22542790.872 10 0 59683 27900.00000 0 11150597.489 2018564.157 22868416.185 10 0 59683 28800.00000 0 10528934.628 4758252.862 22750668.699 10 0 59683 29700.00000 0 10107937.186 7494501.173 22191544.398 10 0 59683 30600.00000 0 9888920.137 10159363.960 21201596.844 10 0 59683 31500.00000 0 9861320.844 12686509.125 19799756.541 10 0 59683 32400.00000 0 10003232.802 15013753.493 18012987.361 10 0 59683 33300.00000 0 10282434.946 17085439.938 15875784.621 10 0 59683 34200.00000 0 10657874.669 18854556.283 13429522.639 10 0 59683 35100.00000 0 11081543.115 20284506.735 10721662.816 10 0 59683 36000.00000 0 11500664.096 21350460.495 7804836.471 10 0 59683 36900.00000 0 11860103.905 22040219.605 4735819.781 10 0 59683 37800.00000 0 12104899.158 22354568.304 1574420.910 10 0 59683 38700.00000 0 12182793.963 22307088.263 -1617698.273 10 0 59683 39600.00000 0 12046676.796 21923446.995 -4778241.417 10 0 59683 40500.00000 0 11656811.339 21240189.673 -7845512.326 10 0 59683 41400.00000 0 10982764.147 20303086.208 -10759638.871 10 0 59683 42300.00000 0 10004945.141 19165104.769 -13463760.078 10 0 59683 43200.00000 0 8715693.684 17884099.248 -15905151.333 10 0 59683 44100.00000 0 7119862.794 16520310.273 -18036264.167 10 0 59683 45000.00000 0 5234875.946 15133787.294 -19815659.159 10 0 59683 45900.00000 0 3090253.720 13781842.094 -21208813.303 10 0 59683 46800.00000 0 726630.313 12516642.164 -22188786.178 10 0 59683 47700.00000 0 -1805698.242 11383045.738 -22736732.566 10 0 59683 48600.00000 0 -4448632.674 10416769.230 -22842252.660 10 0 59683 49500.00000 0 -7138457.574 9642963.042 -22503574.527 10 0 59683 50400.00000 0 -9808265.116 9075253.852 -21727566.886 10 0 59683 51300.00000 0 -12390514.322 8715291.396 -20529583.687 10 0 59683 52200.00000 0 -14819619.601 8552816.231 -18933145.096 10 0 59683 53100.00000 0 -17034461.608 8566243.107 -16969462.536 10 0 59683 54000.00000 0 -18980717.300 8723732.979 -14676818.145 10 0 59683 54900.00000 0 -20612914.000 8984706.553 -12099811.549 10 0 59683 55800.00000 0 -21896124.001 9301734.113 -9288489.092 10 0 59683 56700.00000 0 -22807231.430 9622721.096 -6297372.632 10 0 59683 57600.00000 0 -23335720.895 9893296.967 -3184406.573 10 0 59683 58500.00000 0 -23483957.140 10059306.853 -9843.205 10 0 59683 59400.00000 0 -23266945.960 10069301.528 3164912.681 10 0 59683 60300.00000 0 -22711587.803 9876921.594 6278478.506 10 0 59683 61200.00000 0 -21855456.172 9443076.365 9270666.113 10 0 59683 62100.00000 0 -20745152.296 8737826.484 12083630.079 10 0 59683 63000.00000 0 -19434304.611 7741891.512 14662971.250 10 0 59683 63900.00000 0 -17981296.030 6447719.182 16958775.352 10 0 59683 64800.00000 0 -16446812.876 4860070.773 18926567.974 10 0 59683 65700.00000 0 -14891316.548 2996096.787 20528168.535 10 0 59683 66600.00000 0 -13372542.180 884897.867 21732427.525 10 0 59683 67500.00000 0 -11943127.428 -1433413.255 22515833.333 10 0 59683 68400.00000 0 -10648469.431 -3909112.574 22862976.953 10 0 59683 69300.00000 0 -9524898.876 -6484673.083 22766865.163 10 0 59683 70200.00000 0 -8598247.347 -9096908.335 22229075.210 10 0 59683 71100.00000 0 -7882868.287 -11679364.904 21259746.633 10 0 59683 72000.00000 0 -7381153.411 -14164866.401 19877408.629 10 0 59683 72900.00000 0 -7083566.053 -16488104.788 18108644.329 10 0 59683 73800.00000 0 -6969191.365 -18588171.882 15987596.415 10 0 59683 74700.00000 0 -7006781.582 -20410925.432 13555321.768 10 0 59683 75600.00000 0 -7156253.368 -21911090.319 10859006.021 10 0 59683 76500.00000 0 -7370574.648 -23054005.761 7951052.081 10 0 59683 77400.00000 0 -7597961.214 -23816943.719 4888059.871 10 0 59683 78300.00000 0 -7784289.449 -24189941.577 1729717.182 10 0 59683 79200.00000 0 -7875621.615 -24176112.701 -1462375.983 10 0 59683 80100.00000 0 -7820734.706 -23791420.781 -4625925.268 10 0 59683 81000.00000 0 -7573543.267 -23063927.119 -7699176.460 10 0 59683 81900.00000 0 -7095310.860 -22032542.891 -10622140.543 10 0 59683 82800.00000 0 -6356553.941 -20745339.949 -13337783.148 10 0 59683 83700.00000 0 -5338555.243 -19257492.943 -15793153.297 10 0 59683 84600.00000 0 -4034420.807 -17628941.330 -17940427.811 10 0 59683 85500.00000 0 -2449634.787 -15921871.769 -19737849.810 99